Theta_e
294 290 286 287 289 290 290 288 288 293 298 297 296 298 302 309 311 312 313 316 319 319 320 322 324 326 326 327 327 328 327 328 326 320 315 310 307 305 302 301 302 303 304 303
290 286 290 292 291 288 288 286 287 291 295 295 295 294 298 300 304 311 313 315 318 318 319 319 322 324 324 325 326 326 326 326 324 321 320 315 306 303 300 298 299 300 300 300
284 287 291 290 289 286 286 285 285 286 291 294 293 291 295 300 301 306 311 316 318 319 318 316 319 321 323 324 325 325 326 325 322 319 304 301 300 298 296 296 296 297 298 298
287 290 289 288 287 288 283 289 288 287 286 283 294 282 292 297 300 302 306 312 316 319 319 317 317 320 322 323 326 327 327 325 322 310 306 303 307 302 297 295 295 296 298 296
285 286 287 286 288 290 285 290 288 288 286 284 284 284 290 296 295 300 304 312 316 319 319 317 316 319 322 325 326 327 326 322 315 312 310 308 305 297 294 294 294 294 293 293
288 293 290 289 291 292 292 289 289 289 286 278 284 284 286 291 295 299 306 310 315 318 319 319 315 316 317 318 319 317 317 313 310 307 305 301 297 293 293 294 293 291 291 291
287 288 291 292 288 292 290 285 277 276 276 277 287 285 288 295 298 301 304 308 312 318 317 308 306 309 307 309 309 308 305 300 301 300 297 296 294 294 294 293 291 289 288 288
280 278 288 293 289 286 287 285 279 273 276 280 289 283 290 298 301 302 305 309 312 315 311 306 306 305 304 303 303 303 300 297 297 296 295 296 296 296 295 293 291 289 288 287
279 280 290 291 292 289 286 282 288 282 283 279 286 291 296 296 296 298 302 306 311 311 309 307 304 302 301 300 299 299 298 297 297 296 297 297 296 295 291 290 290 288 287 287
284 277 287 290 292 292 288 288 282 283 277 276 283 286 288 289 291 292 293 305 308 306 305 302 300 300 300 298 297 297 297 296 295 295 295 293 292 291 289 288 286 286 286 287
286 283 283 287 285 285 285 284 285 285 285 280 279 285 289 288 290 290 293 302 300 299 298 297 296 295 295 295 294 294 294 293 293 292 291 289 288 288 287 286 286 286 286 285
286 283 278 282 288 292 289 285 286 280 282 284 284 284 291 290 292 296 291 292 295 295 294 293 292 292 292 291 292 291 290 289 289 288 287 286 286 286 285 285 285 285 284 284
286 282 277 281 285 289 285 287 288 287 285 284 282 285 293 289 288 290 289 290 291 290 290 290 290 290 290 290 290 289 288 287 287 287 286 285 284 284 283 284 284 284 283 283
287 283 280 276 280 284 282 284 287 286 282 283 284 285 288 286 286 287 288 289 289 289 289 289 289 289 289 289 288 287 287 286 286 285 284 283 282 283 283 283 283 283 283 282
284 279 282 283 284 284 284 283 286 285 286 283 285 286 286 286 285 286 288 289 289 289 289 289 289 289 288 288 287 286 285 285 285 284 282 281 282 283 283 283 282 282 282 281
284 278 280 279 285 285 282 285 286 286 286 287 286 287 293 293 292 286 287 288 289 289 289 289 288 287 287 287 285 285 285 284 284 282 281 281 282 282 281 281 281 281 281 281
280 279 277 277 282 281 280 282 283 284 284 284 285 288 292 292 292 291 291 291 290 290 289 288 288 288 287 286 285 284 283 283 281 280 281 281 281 280 280 280 280 280 280 281
279 279 280 276 280 275 283 287 286 285 283 284 285 289 291 291 291 291 293 293 292 293 291 289 289 288 287 285 284 282 282 281 280 281 281 280 280 279 279 279 279 279 279 279
283 280 279 276 276 280 283 284 283 283 283 284 283 287 291 292 291 290 292 294 294 293 294 292 291 288 286 284 282 281 280 280 280 280 280 280 280 279 278 278 278 278 278 278
283 283 279 277 274 274 281 285 286 285 281 285 285 286 289 290 287 288 291 294 294 294 294 292 290 287 284 283 282 281 280 279 279 280 279 280 280 279 279 278 278 278 278 277
277 279 276 277 276 280 285 286 286 280 280 285 285 285 287 287 287 288 291 291 292 293 292 292 289 286 283 283 283 281 280 279 279 280 280 279 279 279 279 278 277 277 277 276
277 277 277 275 274 276 286 287 283 285 286 285 285 285 285 287 288 288 288 288 289 288 286 286 286 284 283 283 283 281 280 279 279 279 278 278 279 278 278 278 277 276 276 276
275 281 280 279 281 286 286 286 287 287 286 286 286 286 285 286 286 286 287 286 286 286 284 284 283 281 282 283 283 281 279 278 278 278 277 278 278 278 278 277 276 276 276 276
276 280 281 281 285 286 285 284 283 283 285 286 286 286 286 286 286 285 285 283 283 282 282 281 282 280 280 281 281 280 278 278 279 277 276 277 276 276 276 277 276 276 275 275
278 280 279 280 283 285 281 281 282 283 283 283 284 285 285 286 284 284 282 281 280 279 279 281 281 280 279 280 279 279 279 279 277 276 275 276 276 276 275 275 275 274 274 275
278 278 277 277 281 282 283 280 280 281 281 280 281 283 283 283 283 282 279 279 279 278 278 279 279 280 280 279 278 279 280 280 277 275 276 276 275 275 274 274 274 276 276 276
Wind_Speed
3 5 10 13 15 18 18 19 21 18 13 14 14 15 14 17 19 22 22 18 17 19 16 17 19 20 18 18 18 19 18 17 12 10 9 6 6 5 5 5 6 7 7 7
3 12 11 8 14 17 18 18 19 15 19 22 21 26 18 17 17 21 21 21 19 16 18 18 21 20 19 19 18 19 18 18 14 11 8 5 6 4 6 5 7 7 8 8
7 14 15 8 11 16 19 19 18 13 14 21 16 25 23 17 21 21 24 21 20 21 18 18 20 22 20 19 20 19 19 19 14 13 9 8 8 6 5 6 6 7 9 9
11 5 8 10 16 14 16 16 17 18 11 10 8 22 26 21 23 26 24 25 21 19 18 17 18 20 21 18 18 19 18 19 16 15 10 15 10 9 5 7 7 8 9 10
8 13 14 17 17 9 11 13 15 16 16 13 16 14 13 20 25 24 24 27 25 20 19 19 19 19 19 16 15 15 16 15 14 13 13 10 10 8 9 8 11 10 9 9
21 13 12 11 12 11 10 9 12 15 13 14 19 16 19 17 24 24 22 24 23 19 20 20 12 13 15 13 13 11 14 12 12 11 10 10 14 13 11 10 7 6 6 6
16 6 4 7 7 9 11 7 5 6 8 12 16 17 26 17 25 27 25 23 22 20 20 16 17 15 12 14 13 11 12 10 10 11 11 13 14 14 15 13 9 10 6 6
9 8 4 5 6 6 8 6 5 9 9 13 9 7 9 3 11 17 20 24 28 27 21 20 18 14 14 11 11 12 12 12 12 13 14 14 17 10 10 8 9 9 8 6
7 9 9 9 3 2 3 7 4 7 15 12 10 11 11 4 5 10 18 21 23 24 22 21 17 15 14 13 11 11 12 12 12 14 14 14 12 11 12 14 10 8 9 6
5 13 7 2 4 13 6 3 5 5 7 12 9 8 10 11 16 15 16 21 15 16 16 16 16 15 12 12 13 12 12 12 13 12 10 12 12 13 11 13 12 11 10 10
10 7 7 11 6 10 4 5 5 5 8 5 7 4 2 10 13 17 10 11 14 15 14 13 14 14 13 12 18 12 13 15 13 14 15 11 11 12 10 12 11 10 11 10
4 5 7 19 13 3 3 10 5 6 4 5 2 3 5 9 12 11 4 3 8 12 14 14 15 15 15 14 16 13 12 13 14 14 18 9 12 11 12 10 12 10 10 8
7 4 8 7 3 4 6 5 8 11 6 4 4 3 5 7 5 3 8 7 6 13 14 15 14 13 14 15 14 14 14 10 12 17 14 14 11 10 11 11 11 10 10 9
6 5 8 12 16 15 11 17 17 4 6 8 4 7 12 13 9 7 5 10 9 11 13 12 13 13 13 14 13 11 14 13 10 13 14 14 10 10 11 10 9 10 10 9
5 6 7 14 19 15 16 14 13 3 7 5 6 7 12 13 8 5 5 8 12 12 12 12 12 12 13 15 13 11 12 12 13 13 13 12 10 10 10 10 10 10 9 9
5 5 7 9 6 11 8 10 14 9 7 6 8 5 8 12 5 5 5 7 9 10 12 12 14 12 12 13 14 12 12 12 12 13 12 10 10 10 10 10 10 9 9 8
5 6 5 5 13 16 1 13 10 6 13 8 6 5 11 12 13 10 6 6 7 8 10 12 12 11 11 11 11 13 12 12 12 12 11 11 12 11 9 10 10 9 8 7
6 8 4 7 10 4 5 7 5 2 13 14 11 10 7 8 9 12 9 6 6 10 11 11 11 12 11 11 13 13 12 12 12 11 12 11 10 11 10 9 9 8 7 7
9 5 5 4 5 6 2 7 6 6 7 8 12 10 3 3 5 8 13 7 4 5 7 9 9 12 13 13 13 13 11 10 11 11 12 10 9 10 9 9 8 6 6 5
6 9 5 2 4 2 2 6 5 3 5 13 13 12 10 6 4 5 12 7 5 9 9 10 11 11 11 11 12 13 11 11 10 10 9 9 8 10 10 9 7 5 5 5
3 3 5 4 3 6 5 14 4 3 5 11 8 10 13 7 3 4 6 7 6 6 10 12 12 10 11 12 12 12 10 8 7 10 10 9 9 8 8 8 5 6 5 5
4 3 3 0 3 2 8 4 7 3 4 5 5 6 7 6 5 4 6 6 8 9 8 8 9 9 7 9 11 10 9 8 10 10 9 9 8 6 6 7 6 6 5 4
4 4 3 6 4 3 5 3 4 3 3 3 4 5 5 5 8 8 7 8 9 8 7 6 8 9 6 5 7 10 7 10 10 10 10 9 8 6 5 7 7 5 4 3
5 3 3 3 2 2 3 3 5 4 4 5 5 5 6 5 6 7 6 7 8 7 6 5 8 8 7 7 8 9 9 10 11 11 9 7 8 7 5 4 4 4 3 3
2 3 3 6 8 3 4 3 5 7 5 5 6 3 7 5 6 7 6 7 6 5 4 4 7 8 8 7 9 9 10 12 11 9 7 7 6 6 6 5 3 4 3 2
7 7 8 5 2 1 1 1 2 4 5 6 5 4 5 8 6 7 7 5 5 6 4 7 7 9 8 9 9 9 8 10 10 8 7 6 6 5 5 5 5 6 6 5
Wind_Direction
24 280 256 267 259 268 276 274 272 275 282 301 279 287 296 264 237 236 236 225 215 215 202 201 197 192 189 194 188 186 178 175 164 162 147 144 134 121 98 85 79 84 92 95
281 273 296 275 265 261 260 265 270 288 264 269 277 276 259 268 273 258 236 229 217 210 197 191 196 193 192 186 186 183 181 173 174 169 165 144 144 125 116 102 85 83 88 92
257 269 302 278 268 253 247 248 259 251 294 281 283 273 265 248 251 249 255 243 222 206 193 185 197 194 187 188 186 184 181 177 173 152 122 105 102 108 119 117 94 82 85 82
274 284 274 276 261 260 269 253 254 256 268 262 235 268 253 243 245 236 234 237 229 209 196 181 189 198 186 189 187 185 183 181 170 156 152 164 171 160 146 134 114 97 82 78
282 295 297 283 273 254 255 263 260 257 247 288 270 265 262 245 244 246 231 223 221 209 193 185 186 196 184 184 183 184 179 170 161 166 170 166 144 121 124 120 113 102 86 79
265 278 281 263 272 260 272 288 271 256 249 251 259 249 271 247 249 239 233 218 216 199 195 191 176 161 165 159 158 149 153 157 153 151 149 144 140 135 128 119 110 90 81 75
320 286 253 235 259 235 250 269 277 232 216 256 253 251 249 250 239 231 216 206 206 195 182 160 161 165 159 161 157 151 147 137 132 131 127 127 125 130 127 129 131 127 105 92
334 324 212 171 247 262 206 214 255 291 245 272 192 247 251 260 295 285 270 212 197 181 174 169 168 164 161 143 154 148 141 134 129 125 124 125 128 130 122 125 118 112 112 119
306 276 298 267 220 195 134 209 260 266 257 272 255 245 283 328 322 315 283 250 201 177 177 165 163 156 140 150 143 135 131 127 129 131 132 132 129 122 121 114 114 110 112 123
281 291 291 332 243 222 226 348 269 209 246 232 228 241 244 338 316 312 323 232 181 166 166 151 148 135 139 134 117 112 120 118 116 111 114 119 111 107 123 114 120 116 117 117
285 250 299 296 231 292 209 244 218 258 245 262 272 232 48 294 291 284 303 209 157 147 141 134 119 121 120 120 111 118 115 118 109 101 100 95 106 113 107 105 107 113 116 124
309 290 282 287 316 308 287 275 238 259 337 252 309 286 20 320 305 260 102 18 118 121 126 120 120 122 116 113 105 110 107 102 106 108 95 95 96 98 101 102 110 116 116 123
345 290 293 291 177 194 298 265 244 275 247 246 258 9 351 334 321 353 105 88 87 109 113 117 117 121 116 111 113 121 109 110 101 100 114 98 94 109 107 107 117 118 124 119
297 255 284 302 302 303 296 306 297 259 280 322 10 300 330 353 359 21 76 101 94 98 105 112 110 113 112 109 113 103 116 102 109 99 99 104 113 118 116 117 120 123 118 118
338 267 278 287 283 282 308 306 311 311 304 333 327 327 352 343 353 358 71 100 111 109 109 104 114 115 120 110 119 105 95 105 105 111 109 117 120 111 112 125 118 115 115 112
336 276 313 284 250 297 307 354 356 350 347 340 310 359 350 347 22 62 77 90 102 115 117 116 106 113 128 128 105 111 112 110 118 107 117 118 114 120 121 118 119 117 116 120
294 320 310 272 323 318 86 357 352 342 9 319 341 334 336 355 10 21 73 90 103 107 118 126 129 128 107 103 119 114 114 111 109 124 127 129 134 127 124 124 124 126 127 133
281 306 281 311 323 26 0 34 35 337 14 1 341 345 351 358 13 22 25 45 105 131 136 136 131 115 110 114 106 109 117 127 131 131 134 133 135 133 130 124 121 126 138 143
233 281 304 314 304 300 359 13 17 352 15 0 337 348 353 30 331 28 7 7 64 118 121 127 125 123 126 124 124 123 125 128 132 143 147 141 131 125 124 125 129 122 133 139
235 232 276 323 316 314 16 325 319 239 13 7 357 356 345 14 52 359 345 353 78 108 118 123 123 119 118 126 131 132 138 141 146 146 130 123 116 130 131 129 136 137 151 134
279 226 256 287 280 292 300 310 285 59 337 337 343 352 8 42 24 340 350 35 48 84 119 129 133 137 139 140 141 138 137 140 115 114 119 123 124 119 123 130 144 137 118 117
220 229 244 152 260 281 2 346 50 340 313 312 326 347 7 24 25 48 49 53 78 82 77 80 99 105 121 138 136 136 137 108 112 119 110 106 108 120 136 131 116 110 116 117
252 232 307 218 263 32 357 350 350 314 276 324 331 337 340 41 24 25 38 50 63 76 83 69 105 99 97 87 107 118 111 116 113 114 111 115 117 122 127 129 123 115 122 126
234 232 249 310 259 269 50 17 10 329 301 330 333 332 356 44 62 61 53 58 60 55 71 82 103 108 102 93 90 116 121 121 119 116 119 127 126 114 98 109 119 131 129 108
271 180 206 261 286 307 103 53 346 340 4 358 341 13 13 356 60 78 72 61 61 67 65 92 106 104 112 104 107 117 127 128 121 123 123 122 120 138 131 94 98 109 77 114
192 197 202 220 187 271 144 10 346 359 3 9 338 357 38 25 59 92 86 75 82 80 70 83 94 110 103 97 105 118 123 122 131 136 146 151 143 136 123 127 116 92 125 138